User: anonymous   Login
Location: Axtheid
(49.6213°N, 11.8205°E)
Time: 21:25:39
(UTC+00:00)
Language:

CSL-04 Debris - Orbit

View from above orbital plane
View from above orbital plane
View from above satellite
View from above satellite

Ground track
Ground track

The orbit data is extracted from the following two-line orbital elements,

1 25733U 99025D   21104.50954553  .00000080  00000-0  62895-4 0  9991
2 25733  98.9159 139.8157 0015025 181.9151 178.1967 14.16449954132312
Epoch (UTC): 14 April 2021 12:13:44
Eccentricity: 0.0015025
inclination: 98.9159°
perigee height: 826 km
apogee height: 848 km
right ascension of ascending node: 139.8157°
argument of perigee: 181.9151°
revolutions per day: 14.16449954
mean anomaly at epoch: 178.1967°
orbit number at epoch: 13231

The dashed part of the orbit path shows where the satellite is in the earth's shadow,  

DLR